Home   Weather   Bournemouth   Past weeks
Flag for United Kingdom

Past Weather in Bournemouth, England, United Kingdom — Yesterday and Last 2 Weeks

Now
54 °F

Clear.


Feels Like: 52 °F
Forecast: 67 / 48 °F
Wind: 7 mph from Northwest

Location: Bournemouth Airport

Current Time: May 24, 2019 at 12:10:11 am

Latest Report: May 23, 2019 at 11:20 pm


Visibility: 10 mi

Pressure: 30.01 "Hg

Humidity: 77%

Dew Point: 46 °F

Location of BournemouthLocation

Past Weather in Bournemouth — Graph

°F

Bournemouth Temperature Yesterday

Maximum temperature yesterday: 68 °F (at 1:50 pm)
Minimum temperature yesterday: 43 °F (at 5:50 am)
Average temperature yesterday: 60 °F

High & Low Weather Summary for the Past Weeks

 TemperatureHumidityPressure
High68 °F (May 21, 2:50 pm)100% (May 9, 6:20 am)30.69 "Hg (May 9, 6:20 am)
Low36 °F (May 10, 5:50 am)32% (May 16, 12:20 pm)29.27 "Hg (May 8, 10:20 pm)
Average56 °F68%30.05 "Hg
* Reported May 8 10:20 pm — May 23 10:20 pm, Bournemouth. Weather by CustomWeather, © 2019

Note: Actual official high and low records may vary slightly from our data, if they occured in-between our weather recording intervals... More about our weather records

Advertising

Bournemouth Weather History for the Previous 24 Hours

Scroll right to see more
 ConditionsComfort  
Time TempWeatherWind HumidityBarometerVisibility
10:20 pm
Thu, May 23
55 °FClear.10 mph72%30.01 "Hg10 mi
9:50 pm57 °FClear.9 mph67%30.01 "Hg10 mi
9:20 pm57 °FClear.6 mph67%30.01 "Hg10 mi
8:20 pm59 °FSunny.8 mph59%30.01 "Hg10 mi
7:50 pm61 °FSunny.12 mph55%30.01 "Hg10 mi
7:20 pm63 °FSunny.8 mph68%29.98 "Hg10 mi
6:50 pm64 °FPassing clouds.8 mph52%29.98 "HgN/A
6:20 pm63 °FPassing clouds.9 mph59%29.98 "HgN/A
5:50 pm63 °FPassing clouds.9 mph59%29.98 "HgN/A
5:20 pm64 °FPassing clouds.10 mph40%29.98 "HgN/A
4:50 pm64 °FPassing clouds.12 mph49%29.98 "HgN/A
4:20 pm64 °FPassing clouds.10 mph46%29.98 "HgN/A
3:20 pm68 °FPassing clouds.12 mph46%29.98 "HgN/A
2:50 pm68 °FPassing clouds.12 mph35%29.98 "HgN/A
2:20 pm68 °FPassing clouds.10 mph46%29.98 "HgN/A
1:50 pm68 °FPassing clouds.9 mph53%30.01 "HgN/A
12:50 pm64 °FPassing clouds.9 mph56%30.01 "HgN/A
12:20 pm64 °FPassing clouds.9 mph60%30.01 "HgN/A
11:50 am64 °FPassing clouds.8 mph64%30.01 "HgN/A
11:20 am64 °FPassing clouds.8 mph56%30.01 "HgN/A
10:50 am66 °FPassing clouds.7 mph43%30.01 "HgN/A
10:20 am64 °FPassing clouds.6 mph52%30.01 "HgN/A
9:50 am64 °FPassing clouds.6 mph56%30.01 "HgN/A
9:20 am63 °FSunny.2 mph64%30.04 "Hg10 mi
8:50 am59 °FSunny.3 mph68%30.04 "Hg10 mi
8:20 am55 °FSunny.3 mph82%30.04 "Hg10 mi
7:50 am52 °FSunny.1 mph88%30.04 "Hg10 mi
7:20 am48 °FSunny.1 mph94%30.04 "Hg10 mi
6:50 am46 °FClear.2 mph93%30.04 "Hg6 mi
6:20 am43 °FFog.2 mph100%30.04 "Hg6 mi
5:50 am43 °FFog.3 mph93%30.04 "Hg6 mi
12:20 am46 °FClear.2 mph82%30.09 "Hg10 mi
Weather by CustomWeather, © 2019

See weather overview